Вернуться в каталог

STARLINK-35332

АктивенСвязьVLEO
NORAD 65887·PAYLOAD·🇺🇸 United States

Запущен Oct 7, 2025 с Cape Canaveral Space Force Station

Loading…

Ближайшие Пролёты (ближайшие 24 часа)

TLE

СвежийSource: CelesTrak SupGP

Эпоха: Sep 14, 2026, 21:42 UTC

1 65887C 25224F   26257.90465278  .00018577  00000+0  54867-3 0  2579
2 65887  53.1584 207.8803 0001378 102.8339  76.7813 15.34391933    19

Отслеживайте STARLINK-35332 в реальном времени с AllMySat

Download on the App Store